DW7918 Weather Reports


Display with metric or nautical units.
time (UTC)temp
F
wind
direction
speed
MPH
gust
MPH
rain 1hr
in
rain 24hr
in
rain mn
in
humidity
%
barometer
mb
20240527154405 59 122 7.0 12.0 0.01 0.65 0.04 90 1001.9
20240527154226 59 122 7.0 12.0 0.01 0.65 0.04 90 1001.9
20240527154004 59 123 7.0 12.0 0.01 0.65 0.04 91 1001.8
20240527153804 59 126 8.0 12.0 0.01 0.65 0.04 91 1001.7
20240527153604 58 125 7.0 12.0 0.01 0.65 0.04 91 1001.7
20240527153404 59 119 6.0 12.0 0.01 0.65 0.04 91 1001.7
20240527153204 58 117 6.0 12.0 0.01 0.65 0.04 91 1001.6
20240527153005 58 117 5.0 11.0 0.01 0.65 0.04 92 1001.6
20240527152804 58 115 5.0 11.0 0.01 0.65 0.04 92 1001.6
20240527152626 58 115 5.0 10.0 0.01 0.65 0.04 92 1001.6
20240527152404 58 115 6.0 10.0 0.00 0.64 0.03 91 1001.6
20240527152204 58 117 6.0 10.0 0.00 0.64 0.03 91 1001.5
20240527152026 58 117 6.0 10.0 0.00 0.64 0.03 91 1001.5
20240527151803 58 121 6.0 13.0 0.00 0.64 0.03 91 1001.5
20240527151604 58 123 7.0 13.0 0.00 0.64 0.03 90 1001.5
20240527151405 58 125 7.0 13.0 0.00 0.64 0.03 91 1001.4
20240527151205 58 129 7.0 13.0 0.00 0.64 0.03 91 1001.4
20240527151005 58 129 6.0 13.0 0.00 0.64 0.03 91 1001.3
20240527150825 58 128 7.0 11.0 0.00 0.64 0.03 91 1001.3
20240527150605 58 126 6.0 11.0 0.00 0.64 0.03 91 1001.3
20240527150404 58 124 6.0 11.0 0.00 0.64 0.03 91 1001.3
20240527150204 58 118 6.0 11.0 0.00 0.64 0.03 91 1001.2
20240527150005 58 119 6.0 11.0 0.00 0.64 0.03 91 1001.2
20240527145805 58 115 6.0 11.0 0.00 0.64 0.03 92 1001.1
20240527145605 58 122 7.0 12.0 0.00 0.64 0.03 91 1001.1
20240527145405 58 124 8.0 13.0 0.00 0.64 0.03 91 1001.1
20240527145225 58 126 8.0 13.0 0.00 0.64 0.03 91 1001.0
20240527145003 58 126 8.0 13.0 0.00 0.64 0.03 90 1001.0
20240527144804 58 128 7.0 13.0 0.00 0.64 0.03 90 1001.0
20240527144605 58 124 7.0 13.0 0.00 0.64 0.03 90 1001.1
20240527144404 58 122 7.0 12.0 0.00 0.64 0.03 90 1001.0
20240527144204 58 120 7.0 12.0 0.00 0.64 0.03 90 1001.0
20240527144025 58 118 6.0 12.0 0.00 0.64 0.03 90 1000.9
20240527143804 58 112 6.0 11.0 0.00 0.64 0.03 90 1000.9
20240527143605 58 114 6.0 11.0 0.00 0.64 0.03 90 1000.9
20240527143425 58 111 6.0 12.0 0.00 0.64 0.03 90 1000.8
20240527143205 58 108 5.0 12.0 0.00 0.64 0.03 90 1000.8
20240527143005 58 110 6.0 12.0 0.00 0.64 0.03 90 1000.7
20240527142804 58 117 6.0 12.0 0.00 0.64 0.03 90 1000.7
20240527142605 58 119 7.0 14.0 0.00 0.64 0.03 90 1000.7
20240527142404 58 124 8.0 14.0 0.00 0.64 0.03 90 1000.7
20240527142204 58 126 8.0 15.0 0.00 0.64 0.03 90 1000.6
20240527142025 58 128 8.0 15.0 0.00 0.64 0.03 89 1000.7
20240527141825 58 130 9.0 15.0 0.00 0.64 0.03 89 1000.7
20240527141604 58 132 9.0 15.0 0.00 0.64 0.03 89 1000.7
20240527141405 58 132 9.0 15.0 0.00 0.64 0.03 89 1000.7
20240527141205 58 134 9.0 15.0 0.00 0.64 0.03 90 1000.7
20240527141005 58 129 8.0 15.0 0.00 0.64 0.03 90 1000.7
20240527140804 58 128 8.0 13.0 0.00 0.64 0.03 90 1000.6
20240527140626 58 130 8.0 13.0 0.00 0.64 0.03 91 1000.6
20240527140405 58 129 8.0 14.0 0.00 0.64 0.03 91 1000.5
20240527140203 58 127 8.0 14.0 0.00 0.64 0.03 91 1000.5
20240527140004 58 128 7.0 14.0 0.00 0.64 0.03 91 1000.5
20240527135805 58 124 7.0 14.0 0.00 0.64 0.03 91 1000.4
20240527135605 58 119 6.0 13.0 0.00 0.64 0.03 91 1000.4
20240527135405 58 114 5.0 13.0 0.00 0.64 0.03 91 1000.3
20240527135205 58 114 6.0 13.0 0.00 0.64 0.03 91 1000.3
20240527135025 58 116 6.0 13.0 0.00 0.64 0.03 90 1000.3
20240527134804 58 114 5.0 12.0 0.00 0.64 0.03 90 1000.3
20240527134604 58 114 5.0 12.0 0.00 0.64 0.03 90 1000.3
20240527134425 58 116 6.0 12.0 0.00 0.64 0.03 90 1000.3
20240527134205 58 114 6.0 15.0 0.00 0.64 0.03 90 1000.2
20240527134004 58 110 6.0 15.0 0.00 0.64 0.03 90 1000.2
20240527133826 58 107 5.0 15.0 0.00 0.64 0.03 90 1000.2
20240527133626 58 110 6.0 15.0 0.00 0.64 0.03 89 1000.1
20240527133405 58 109 5.0 11.0 0.00 0.64 0.03 90 1000.1
20240527133203 58 108 5.0 10.0 0.00 0.64 0.03 90 1000.0
20240527133025 58 105 5.0 10.0 0.00 0.64 0.03 90 1000.0
20240527132804 58 114 6.0 13.0 0.00 0.64 0.03 89 1000.0
20240527132625 58 113 6.0 13.0 0.00 0.64 0.03 90 999.9
20240527132405 58 108 6.0 13.0 0.00 0.64 0.03 90 1000.0
20240527132205 58 109 6.0 14.0 0.00 0.64 0.03 90 999.9
20240527132005 58 109 5.0 14.0 0.00 0.64 0.03 90 999.9
20240527131804 58 103 4.0 14.0 0.00 0.64 0.03 90 999.8
20240527131605 58 100 4.0 14.0 0.00 0.64 0.03 90 999.8
20240527131404 58 99 4.0 14.0 0.00 0.64 0.03 90 999.8
20240527131205 58 99 4.0 10.0 0.00 0.64 0.03 90 999.8
20240527131005 58 97 4.0 11.0 0.00 0.64 0.03 90 999.8
20240527130805 58 95 4.0 11.0 0.00 0.64 0.03 90 999.8
20240527130605 58 96 5.0 11.0 0.00 0.64 0.03 90 999.8
20240527130425 58 97 4.0 11.0 0.00 0.64 0.03 90 999.8
20240527130205 58 95 4.0 11.0 0.00 0.64 0.03 89 999.8
20240527130004 58 95 4.0 10.0 0.00 0.64 0.03 90 999.9
20240527125803 58 93 4.0 10.0 0.00 0.64 0.03 89 999.8
20240527125603 58 90 3.0 9.0 0.00 0.64 0.03 90 999.7
20240527125405 58 89 4.0 9.0 0.00 0.64 0.03 90 999.7
20240527125205 58 91 4.0 9.0 0.00 0.64 0.03 90 999.7
20240527125005 58 91 4.0 9.0 0.00 0.64 0.03 90 999.7
20240527124804 57 93 4.0 8.0 0.00 0.64 0.03 90 999.6
20240527124605 57 90 4.0 9.0 0.00 0.64 0.03 90 999.6
20240527124405 57 92 4.0 9.0 0.00 0.64 0.03 90 999.6
20240527124205 57 91 4.0 9.0 0.00 0.64 0.03 90 999.6
20240527124004 57 90 4.0 9.0 0.00 0.64 0.03 90 999.6
20240527123805 57 88 3.0 9.0 0.00 0.64 0.03 90 999.6
20240527123626 57 89 3.0 9.0 0.00 0.64 0.03 90 999.6
20240527123405 57 92 4.0 11.0 0.00 0.64 0.03 90 999.6
20240527123225 57 94 4.0 11.0 0.00 0.64 0.03 90 999.6
20240527123005 57 94 4.0 11.0 0.00 0.64 0.03 90 999.6
20240527122804 57 92 4.0 11.0 0.00 0.64 0.03 90 999.6
20240527122604 57 92 4.0 10.0 0.00 0.64 0.03 90 999.6
20240527122405 57 89 3.0 9.0 0.00 0.64 0.03 90 999.6
20240527122225 57 87 3.0 9.0 0.00 0.64 0.03 90 999.6
20240527122005 57 91 3.0 9.0 0.00 0.64 0.03 90 999.6
20240527121805 57 93 3.0 8.0 0.00 0.64 0.03 90 999.5
20240527121604 57 93 3.0 8.0 0.00 0.64 0.03 90 999.5
20240527121405 57 93 3.0 8.0 0.00 0.64 0.03 90 999.5
20240527121204 57 94 3.0 8.0 0.00 0.64 0.03 90 999.5
20240527121004 57 88 3.0 9.0 0.00 0.64 0.03 90 999.5
20240527120805 57 88 3.0 9.0 0.00 0.64 0.03 90 999.5
20240527120604 57 88 4.0 9.0 0.00 0.64 0.03 90 999.5
20240527120405 57 89 4.0 9.0 0.00 0.64 0.03 90 999.5
20240527120226 57 88 4.0 9.0 0.00 0.64 0.03 90 999.4
20240527120026 57 85 3.0 9.0 0.00 0.64 0.03 91 999.4
20240527115826 57 84 3.0 9.0 0.00 0.64 0.03 91 999.4
20240527115604 57 82 3.0 7.0 0.00 0.64 0.03 91 999.4
20240527115405 57 84 3.0 9.0 0.00 0.64 0.03 91 999.4
20240527115205 57 85 3.0 9.0 0.00 0.64 0.03 91 999.5
20240527115004 56 86 3.0 9.0 0.00 0.64 0.03 91 999.4
20240527114805 56 91 3.0 9.0 0.00 0.64 0.03 91 999.4
20240527114605 56 93 4.0 9.0 0.00 0.64 0.03 91 999.4
20240527114404 56 95 4.0 9.0 0.00 0.64 0.03 92 999.4
20240527114226 56 97 4.0 10.0 0.00 0.64 0.03 92 999.4
20240527114005 56 105 5.0 11.0 0.00 0.64 0.03 92 999.4
20240527113804 56 106 5.0 11.0 0.00 0.64 0.03 92 999.4
20240527113625 56 106 6.0 11.0 0.00 0.64 0.03 92 999.4
20240527113404 56 106 5.0 11.0 0.00 0.64 0.03 93 999.5
20240527113205 56 105 5.0 11.0 0.00 0.64 0.03 93 999.5
20240527113004 56 103 4.0 10.0 0.00 0.64 0.03 93 999.5
20240527112805 56 102 4.0 10.0 0.00 0.64 0.03 93 999.4
20240527112605 56 102 4.0 10.0 0.00 0.64 0.03 93 999.5
20240527112405 56 102 4.0 10.0 0.00 0.64 0.03 93 999.5
20240527112205 56 104 4.0 10.0 0.00 0.64 0.03 93 999.4
20240527112005 56 105 5.0 11.0 0.00 0.64 0.03 93 999.4
20240527111804 56 107 5.0 11.0 0.00 0.64 0.03 93 999.4
20240527111604 56 113 6.0 11.0 0.00 0.64 0.03 93 999.4
20240527111405 56 114 6.0 11.0 0.00 0.64 0.03 93 999.5
20240527111225 56 115 6.0 11.0 0.00 0.64 0.03 93 999.4
20240527111005 56 116 6.0 11.0 0.00 0.64 0.03 93 999.3
20240527110804 57 122 6.0 12.0 0.00 0.64 0.03 93 999.3
20240527110626 57 123 6.0 12.0 0.00 0.64 0.03 93 999.3
20240527110426 57 127 6.0 12.0 0.00 0.64 0.03 93 999.2
20240527110204 57 131 7.0 12.0 0.00 0.64 0.03 93 999.3
20240527110005 57 135 7.0 12.0 0.00 0.64 0.03 93 999.3
20240527105804 57 133 7.0 12.0 0.00 0.64 0.03 93 999.2
20240527105605 57 132 7.0 12.0 0.00 0.64 0.03 93 999.2
20240527105405 57 131 7.0 12.0 0.00 0.64 0.03 93 999.2
20240527105226 58 132 7.0 12.0 0.00 0.64 0.03 93 999.3
20240527105026 58 130 7.0 12.0 0.00 0.64 0.03 93 999.3
20240527104805 58 130 6.0 11.0 0.00 0.64 0.03 93 999.2
20240527104605 58 129 6.0 11.0 0.00 0.64 0.03 93 999.2
20240527104426 58 131 6.0 11.0 0.00 0.64 0.03 93 999.1
20240527104205 58 130 6.0 10.0 0.00 0.64 0.03 93 999.1
20240527104004 58 129 6.0 10.0 0.00 0.64 0.03 93 999.0
20240527103805 58 128 6.0 9.0 0.00 0.64 0.03 93 999.1
20240527103605 59 126 5.0 9.0 0.00 0.64 0.03 93 999.0
20240527103404 59 122 5.0 9.0 0.00 0.64 0.03 93 998.8
20240527103204 59 120 5.0 9.0 0.00 0.64 0.03 93 998.8
20240527103004 59 119 5.0 9.0 0.00 0.64 0.03 93 998.8
20240527102804 59 119 5.0 9.0 0.00 0.64 0.03 93 998.8
20240527102626 59 119 5.0 9.0 0.00 0.64 0.03 93 998.7
20240527102405 59 117 4.0 9.0 0.00 0.64 0.03 93 998.7
20240527102226 59 111 4.0 9.0 0.00 0.64 0.03 93 998.7
20240527102005 60 110 4.0 9.0 0.00 0.64 0.03 93 998.7
20240527101805 60 113 3.0 9.0 0.00 0.64 0.03 93 998.7
20240527101626 60 111 4.0 9.0 0.00 0.64 0.03 93 998.7
20240527101426 60 113 4.0 9.0 0.00 0.64 0.03 92 998.7
20240527101205 60 112 4.0 9.0 0.00 0.64 0.03 92 998.7
20240527101005 60 112 3.0 9.0 0.00 0.64 0.03 92 998.7
20240527100805 60 106 3.0 9.0 0.00 0.64 0.03 92 998.7
20240527100625 61 104 3.0 9.0 0.00 0.64 0.03 92 998.6
20240527100405 61 104 3.0 9.0 0.00 0.64 0.03 92 998.6
20240527100205 61 102 3.0 9.0 0.00 0.64 0.03 92 998.6
20240527100005 62 100 2.0 8.0 0.00 0.64 0.03 93 998.5
20240527095804 62 98 2.0 7.0 0.00 0.64 0.03 94 998.4
20240527095605 62 93 2.0 6.0 0.00 0.64 0.03 94 998.4
20240527095405 62 83 1.0 3.0 0.00 0.64 0.03 94 998.4
20240527095226 62 83 1.0 3.0 0.00 0.64 0.03 94 998.5
20240527095005 62 79 1.0 3.0 0.00 0.64 0.03 93 998.3
20240527094826 62 75 1.0 3.0 0.00 0.64 0.03 94 998.3
20240527094604 62 71 1.0 2.0 0.00 0.64 0.03 93 998.2
20240527094405 62 69 1.0 2.0 0.00 0.64 0.03 93 998.2
20240527094226 62 69 1.0 2.0 0.00 0.64 0.03 93 998.1
20240527094005 62 69 1.0 2.0 0.00 0.64 0.03 93 998.1
20240527093826 62 69 1.0 2.0 0.00 0.64 0.03 93 998.2
20240527093626 62 69 1.0 2.0 0.00 0.64 0.03 93 998.0
20240527093405 62 69 1.0 2.0 0.00 0.64 0.03 93 998.1
20240527093205 62 70 1.0 2.0 0.00 0.64 0.03 93 998.1
20240527093005 62 70 1.0 2.0 0.00 0.64 0.03 93 998.1
20240527092805 62 70 1.0 2.0 0.00 0.64 0.03 93 998.1
20240527092605 62 70 1.0 2.0 0.00 0.64 0.03 93 998.1
20240527092405 62 70 1.0 2.0 0.00 0.64 0.03 93 998.1
20240527092204 62 70 0.0 2.0 0.00 0.64 0.03 93 998.0
20240527092005 62 70 0.0 2.0 0.00 0.64 0.03 93 998.1
20240527091805 62 70 0.0 2.0 0.00 0.64 0.03 93 998.0
20240527091626 62 70 0.0 1.0 0.00 0.64 0.03 93 998.0
20240527091404 61 70 0.0 1.0 0.00 0.64 0.03 93 998.0
20240527091205 62 70 0.0 1.0 0.00 0.64 0.03 93 998.1
20240527091004 62 70 0.0 1.0 0.00 0.64 0.03 93 998.1
20240527090805 62 70 1.0 2.0 0.00 0.64 0.03 93 998.1
20240527090605 62 70 1.0 2.0 0.00 0.64 0.03 93 998.1
20240527090405 62 70 1.0 2.0 0.00 0.64 0.03 93 998.1
20240527090205 62 70 1.0 2.0 0.00 0.64 0.03 93 998.1
20240527090004 62 68 1.0 4.0 0.00 0.64 0.03 93 998.1
20240527085805 62 70 1.0 4.0 0.00 0.64 0.03 93 998.2
20240527085605 62 71 1.0 4.0 0.00 0.64 0.03 93 998.2
20240527085426 62 72 1.0 4.0 0.00 0.64 0.03 93 998.2
20240527085206 62 73 1.0 4.0 0.00 0.64 0.03 93 998.2
20240527085006 62 75 1.0 3.0 0.00 0.64 0.03 92 998.3
20240527084826 62 76 1.0 3.0 0.00 0.64 0.03 92 998.3
20240527084627 62 78 1.0 3.0 0.00 0.64 0.03 92 998.3
20240527084426 62 79 1.0 3.0 0.00 0.64 0.03 92 998.4
20240527084205 62 83 1.0 2.0 0.00 0.64 0.03 92 998.4
20240527084004 62 84 1.0 2.0 0.00 0.64 0.03 92 998.3
20240527083805 62 85 1.0 2.0 0.00 0.64 0.03 92 998.3
20240527083605 62 85 1.0 2.0 0.00 0.64 0.03 92 998.4
20240527083406 62 85 1.0 2.0 0.00 0.64 0.03 92 998.5
20240527083206 62 84 1.0 3.0 0.00 0.64 0.03 92 998.5
20240527083005 62 82 1.0 3.0 0.00 0.64 0.03 92 998.5
20240527082805 62 79 1.0 3.0 0.00 0.64 0.03 92 998.6
20240527082606 62 77 1.0 3.0 0.00 0.64 0.03 92 998.6
20240527082405 62 75 1.0 3.0 0.00 0.64 0.03 92 998.7
20240527082205 63 74 1.0 2.0 0.00 0.64 0.03 92 998.7
20240527082006 63 73 1.0 2.0 0.00 0.64 0.03 92 998.6
20240527081806 63 72 1.0 3.0 0.00 0.64 0.03 92 998.6
20240527081605 63 71 1.0 3.0 0.00 0.64 0.03 92 998.6
20240527081406 63 71 1.0 3.0 0.00 0.64 0.03 92 998.6
20240527081205 63 70 1.0 3.0 0.00 0.64 0.03 92 998.6
20240527081006 63 69 1.0 3.0 0.00 0.64 0.03 92 998.5
20240527080806 63 69 1.0 3.0 0.00 0.64 0.03 92 998.6
20240527080627 63 68 2.0 5.0 0.00 0.64 0.03 92 998.6
20240527080406 63 68 2.0 5.0 0.00 0.64 0.03 92 998.5
20240527080204 63 70 3.0 6.0 0.00 0.64 0.03 92 998.6
20240527080027 63 73 3.0 6.0 0.00 0.64 0.03 92 998.7
20240527075827 63 75 3.0 6.0 0.00 0.64 0.03 92 998.7
20240527075606 63 78 3.0 6.0 0.00 0.64 0.03 92 998.7
20240527075405 63 79 2.0 6.0 0.00 0.64 0.03 92 998.7
20240527075206 63 77 2.0 5.0 0.00 0.64 0.03 92 998.7
20240527075005 63 74 2.0 7.0 0.00 0.64 0.03 92 998.6
20240527074806 63 69 3.0 7.0 0.00 0.64 0.03 92 998.5
20240527074627 63 66 3.0 7.0 0.00 0.64 0.03 92 998.4
20240527074406 63 64 4.0 7.0 0.00 0.64 0.03 92 998.5
20240527074206 63 60 4.0 8.0 0.00 0.64 0.03 92 998.5
20240527074006 64 56 4.0 8.0 0.00 0.64 0.03 92 998.4
20240527073827 64 54 4.0 8.0 0.00 0.64 0.03 92 998.5
20240527073605 64 53 4.0 8.0 0.00 0.64 0.03 93 998.6
20240527073406 64 52 3.0 8.0 0.00 0.64 0.03 93 998.6
20240527073205 64 55 3.0 7.0 0.00 0.64 0.03 93 998.7
20240527073006 64 58 2.0 6.0 0.00 0.64 0.03 93 998.6
20240527072806 64 59 3.0 5.0 0.00 0.64 0.03 93 998.6
20240527072605 64 59 2.0 5.0 0.00 0.64 0.03 93 998.6
20240527072405 64 60 2.0 5.0 0.01 0.64 0.03 93 998.5
20240527072206 64 60 2.0 5.0 0.01 0.64 0.03 93 998.5
20240527072006 64 60 2.0 5.0 0.01 0.64 0.03 93 998.6
20240527071806 64 62 2.0 5.0 0.01 0.64 0.03 93 998.6
20240527071606 64 65 2.0 4.0 0.01 0.64 0.03 93 998.6
20240527071406 64 65 2.0 4.0 0.01 0.64 0.03 93 998.6
20240527071226 64 64 2.0 4.0 0.01 0.64 0.03 93 998.6
20240527071026 64 63 2.0 4.0 0.01 0.64 0.03 93 998.6
20240527070827 64 63 2.0 4.0 0.01 0.64 0.03 93 998.6
20240527070627 64 63 2.0 4.0 0.02 0.64 0.03 93 998.6
20240527070406 64 64 2.0 4.0 0.02 0.64 0.03 93 998.6
20240527070206 64 66 1.0 4.0 0.03 0.64 0.03 93 998.5
20240527070027 64 66 2.0 3.0 0.03 0.64 0.03 93 998.5
20240527065828 64 63 2.0 5.0 0.03 0.64 0.03 93 998.5
20240527065606 64 62 2.0 5.0 0.03 0.64 0.03 93 998.6
20240527065407 64 62 2.0 5.0 0.03 0.64 0.03 93 998.7
20240527065207 64 62 2.0 5.0 0.03 0.64 0.03 93 998.7
20240527065007 64 62 2.0 5.0 0.03 0.64 0.03 93 998.7
20240527064807 64 65 2.0 3.0 0.03 0.64 0.03 93 998.7
20240527064607 64 66 2.0 3.0 0.03 0.64 0.03 93 998.6
20240527064406 64 66 1.0 3.0 0.03 0.64 0.03 93 998.6
20240527064207 64 66 1.0 3.0 0.03 0.64 0.03 93 998.6
20240527064028 64 67 1.0 3.0 0.03 0.64 0.03 93 998.6
20240527063807 64 72 1.0 3.0 0.03 0.64 0.03 93 998.5
20240527063607 64 71 1.0 3.0 0.03 0.64 0.03 93 998.5
20240527063406 64 71 1.0 3.0 0.03 0.64 0.03 93 998.6
20240527063204 64 68 1.0 3.0 0.03 0.64 0.03 93 998.6
20240527063007 64 65 2.0 3.0 0.03 0.64 0.03 93 998.6
20240527062804 64 62 2.0 3.0 0.03 0.64 0.03 93 998.5
20240527062626 64 63 2.0 3.0 0.03 0.64 0.03 93 998.7
20240527062427 64 62 2.0 3.0 0.02 0.63 0.02 92 998.6
20240527062204 64 62 2.0 5.0 0.02 0.63 0.02 92 998.7
20240527062027 64 65 2.0 5.0 0.02 0.63 0.02 92 998.8
20240527061806 64 68 2.0 5.0 0.02 0.63 0.02 92 999.1
20240527061627 64 69 3.0 7.0 0.02 0.63 0.02 92 999.2
20240527061406 64 67 3.0 7.0 0.02 0.63 0.02 92 999.3
20240527061206 64 63 3.0 8.0 0.02 0.63 0.02 92 999.3
20240527061006 64 57 4.0 8.0 0.02 0.63 0.02 92 999.3
20240527060804 64 55 4.0 8.0 0.02 0.63 0.02 92 999.4
20240527060606 64 52 3.0 8.0 0.01 0.62 0.01 92 999.4
20240527060406 64 52 3.0 8.0 0.01 0.62 0.01 92 999.3
20240527060206 64 52 3.0 7.0 0.00 0.61 0.00 92 999.3
20240527060006 64 52 3.0 8.0 0.00 0.61 0.00 92 999.6
20240527055805 64 51 4.0 8.0 0.00 0.61 0.00 92 999.7
20240527055606 64 50 4.0 8.0 0.00 0.61 0.00 92 999.8
20240527055405 64 49 4.0 8.0 0.00 0.61 0.00 92 999.8
20240527055227 64 49 4.0 8.0 0.00 0.61 0.00 91 999.8
20240527055027 64 48 4.0 8.0 0.00 0.61 0.00 91 999.9
20240527054806 64 43 5.0 8.0 0.00 0.61 0.00 91 999.9
20240527054606 64 41 5.0 11.0 0.00 0.61 0.00 91 999.9
20240527054406 64 39 5.0 11.0 0.00 0.61 0.00 91 999.9
20240527054205 64 39 5.0 11.0 0.00 0.61 0.00 91 999.8
20240527054006 64 43 5.0 11.0 0.00 0.61 0.00 91 999.8
20240527053827 64 44 4.0 11.0 0.00 0.61 0.00 91 999.9
20240527053606 64 47 4.0 10.0 0.00 0.61 0.00 91 999.9
20240527053406 64 46 4.0 10.0 0.00 0.61 0.00 91 999.9
20240527053227 64 40 4.0 10.0 0.00 0.61 0.00 91 999.9
20240527053006 64 35 5.0 10.0 0.00 0.61 0.00 91 999.8
20240527052827 64 24 5.0 10.0 0.00 0.61 0.00 91 999.7
20240527052606 64 20 5.0 10.0 0.00 0.61 0.00 91 999.7
20240527052406 64 15 6.0 9.0 0.00 0.61 0.00 91 999.7
20240527052205 64 18 6.0 10.0 0.00 0.61 0.00 91 999.7
20240527052005 64 11 6.0 10.0 0.00 0.61 0.00 91 999.7
20240527051806 64 14 6.0 10.0 0.00 0.61 0.00 91 999.6
20240527051606 64 14 6.0 10.0 0.00 0.61 0.00 91 999.7
20240527051406 64 11 6.0 12.0 0.00 0.61 0.00 91 999.7
20240527051206 64 9 6.0 12.0 0.00 0.61 0.00 91 999.9
20240527051005 64 11 6.0 12.0 0.00 0.61 0.00 91 999.8
20240527050806 64 7 6.0 13.0 0.00 0.61 0.00 90 999.8
20240527050606 64 8 6.0 13.0 0.00 0.61 0.00 90 999.7
20240527050406 64 12 6.0 13.0 0.00 0.61 0.00 90 999.9
20240527050206 64 14 6.0 13.0 0.00 0.61 0.00 90 1000.0
20240527050005 64 19 6.0 13.0 0.00 0.61 0.00 90 1000.2
20240527045806 64 18 5.0 11.0 0.00 0.61 0.00 90 1000.2
20240527045627 64 16 5.0 11.0 0.00 0.61 0.00 90 1000.2
20240527045406 64 14 5.0 11.0 0.00 0.61 0.00 90 1000.4
20240527045206 64 12 5.0 11.0 0.00 0.61 0.00 91 1000.5
20240527045006 64 13 5.0 11.0 0.00 0.61 0.00 91 1000.5
20240527044826 64 17 5.0 11.0 0.00 0.61 0.00 91 1000.6
20240527044606 64 23 5.0 10.0 0.00 0.61 0.00 91 1000.8
20240527044406 64 25 6.0 10.0 0.00 0.61 0.00 91 1000.7
20240527044227 64 25 6.0 10.0 0.00 0.61 0.00 91 1000.7
20240527044006 64 24 6.0 10.0 0.00 0.61 0.00 91 1000.7
20240527043827 64 25 5.0 10.0 0.00 0.61 0.00 91 1000.7
20240527043606 64 26 5.0 9.0 0.00 0.61 0.00 91 1000.9
20240527043427 64 30 5.0 9.0 0.00 0.61 0.00 91 1000.8
20240527043206 64 36 4.0 9.0 0.00 0.61 0.00 91 1000.8
20240527043006 64 38 4.0 9.0 0.00 0.61 0.00 91 1000.9
20240527042827 64 36 4.0 9.0 0.00 0.61 0.00 91 1000.8
20240527042606 64 40 4.0 9.0 0.00 0.61 0.00 91 1000.9
20240527042406 64 41 3.0 9.0 0.00 0.61 0.00 91 1000.9
20240527042206 64 42 3.0 9.0 0.00 0.61 0.00 91 1000.9
20240527042006 64 42 3.0 9.0 0.00 0.61 0.00 91 1000.8
20240527041806 64 47 3.0 6.0 0.00 0.61 0.00 91 1000.9
20240527041627 64 42 3.0 6.0 0.00 0.61 0.00 91 1000.8
20240527041406 64 33 4.0 8.0 0.00 0.61 0.00 91 1000.8
20240527041227 64 32 4.0 8.0 0.00 0.61 0.00 92 1000.9
20240527041006 64 26 4.0 8.0 0.00 0.61 0.00 91 1000.8
20240527040827 64 20 4.0 8.0 0.00 0.61 0.00 92 1000.7
20240527040606 64 26 4.0 8.0 0.00 0.61 0.00 92 1000.7
20240527040406 64 33 3.0 7.0 0.00 0.61 0.00 92 1000.7
20240527040206 64 34 3.0 7.0 0.00 0.61 0.00 92 1000.7
20240527040027 64 46 3.0 7.0 0.00 0.61 0.00 92 1000.7
20240527035805 64 51 2.0 5.0 0.00 0.61 0.00 92 1000.8
20240527035627 64 53 2.0 5.0 0.00 0.61 0.61 92 1000.7
20240527035406 64 53 2.0 5.0 0.00 0.61 0.61 92 1000.8
20240527035206 64 51 2.0 5.0 0.00 0.61 0.61 92 1000.7
20240527035027 64 50 2.0 5.0 0.00 0.61 0.61 92 1000.7
20240527034806 64 57 2.0 4.0 0.00 0.61 0.61 92 1000.5
20240527034606 64 56 2.0 4.0 0.00 0.61 0.61 92 1000.5
20240527034406 64 56 2.0 4.0 0.00 0.61 0.61 92 1000.5
20240527034206 64 56 2.0 5.0 0.00 0.61 0.61 92 1000.5
20240527034006 64 58 2.0 5.0 0.00 0.61 0.61 92 1000.5
20240527033806 64 55 2.0 5.0 0.00 0.61 0.61 92 1000.6
20240527033606 64 54 2.0 5.0 0.00 0.61 0.61 92 1000.6
20240527033406 64 53 2.0 5.0 0.00 0.61 0.61 92 1000.6
20240527033205 64 47 3.0 6.0 0.00 0.61 0.61 92 1000.5
20240527033006 64 45 2.0 6.0 0.00 0.61 0.61 92 1000.5
20240527032806 64 46 2.0 6.0 0.00 0.61 0.61 92 1000.5
20240527032606 64 46 2.0 6.0 0.00 0.61 0.61 92 1000.5
20240527032406 64 46 2.0 6.0 0.00 0.61 0.61 92 1000.5
20240527032206 64 53 2.0 5.0 0.00 0.61 0.61 92 1000.6
20240527032027 64 54 2.0 4.0 0.00 0.61 0.61 92 1000.7
20240527031806 64 56 2.0 4.0 0.00 0.61 0.61 92 1000.8
20240527031606 64 53 2.0 4.0 0.00 0.61 0.61 92 1001.0
20240527031406 64 53 2.0 4.0 0.00 0.61 0.61 92 1001.0
20240527031206 64 56 2.0 4.0 0.00 0.61 0.61 91 1001.0
20240527031006 64 50 2.0 5.0 0.00 0.61 0.61 91 1001.0
20240527030806 64 49 2.0 5.0 0.00 0.61 0.61 91 1001.1
20240527030605 64 50 2.0 5.0 0.00 0.61 0.61 91 1001.1
20240527030406 64 51 1.0 5.0 0.00 0.61 0.61 91 1001.2
20240527030205 64 49 1.0 5.0 0.00 0.61 0.61 91 1001.3
20240527030006 64 61 1.0 3.0 0.00 0.61 0.61 92 1001.4
20240527025826 64 64 1.0 3.0 0.00 0.61 0.61 91 1001.5
20240527025606 64 67 1.0 3.0 0.00 0.61 0.61 91 1001.6
20240527025427 64 67 1.0 3.0 0.00 0.61 0.61 91 1001.6
20240527025206 64 65 1.0 3.0 0.00 0.61 0.61 91 1001.7
20240527025006 64 64 1.0 3.0 0.00 0.61 0.61 91 1001.8
20240527024827 64 64 1.0 6.0 0.00 0.61 0.61 91 1001.9
20240527024606 64 54 1.0 6.0 0.00 0.61 0.61 91 1001.9
20240527024406 64 54 1.0 6.0 0.00 0.61 0.61 92 1002.0
20240527024227 64 55 2.0 6.0 0.00 0.61 0.61 92 1001.9
20240527024006 64 55 2.0 6.0 0.00 0.61 0.61 92 1001.9
20240527023806 64 54 2.0 5.0 0.00 0.61 0.61 92 1001.8
20240527023627 64 47 2.0 6.0 0.00 0.61 0.61 91 1001.8
20240527023427 64 47 2.0 6.0 0.00 0.61 0.61 91 1001.7
20240527023206 64 44 3.0 6.0 0.00 0.61 0.61 91 1001.4
20240527023027 64 45 3.0 6.0 0.00 0.61 0.61 91 1001.4
20240527022827 64 45 3.0 6.0 0.00 0.61 0.61 91 1001.4
20240527022606 64 55 2.0 6.0 0.00 0.61 0.61 91 1001.3
20240527022427 64 56 2.0 6.0 0.00 0.61 0.61 91 1001.3
20240527022206 64 58 1.0 6.0 0.00 0.61 0.61 91 1001.2
20240527022027 64 61 1.0 4.0 0.00 0.61 0.61 91 1001.3
20240527021806 64 50 2.0 5.0 0.00 0.61 0.61 91 1001.5
20240527021606 64 49 2.0 5.0 0.00 0.61 0.61 91 1001.9
20240527021406 64 50 2.0 5.0 0.00 0.61 0.61 91 1001.9
20240527021206 64 52 2.0 5.0 0.00 0.61 0.61 91 1001.9
20240527021005 64 51 2.0 5.0 0.00 0.61 0.61 91 1001.9
20240527020827 64 59 2.0 3.0 0.00 0.61 0.61 91 1001.9
20240527020606 64 59 1.0 3.0 0.00 0.61 0.61 91 1002.0
20240527020406 64 59 1.0 3.0 0.00 0.61 0.61 91 1001.9
20240527020206 64 58 1.0 4.0 0.00 0.61 0.61 91 1001.8
20240527020006 64 61 1.0 4.0 0.00 0.61 0.61 91 1001.8
20240527015806 64 61 1.0 4.0 0.00 0.61 0.61 91 1001.9
20240527015606 64 61 1.0 4.0 0.00 0.61 0.61 91 1001.9
20240527015406 64 59 0.0 4.0 0.00 0.61 0.61 91 1001.9
20240527015227 64 66 0.0 2.0 0.00 0.61 0.61 91 1002.0
20240527015006 64 65 0.0 2.0 0.00 0.61 0.61 91 1001.9
20240527014806 64 65 0.0 2.0 0.00 0.61 0.61 91 1002.0
20240527014627 64 65 0.0 2.0 0.00 0.61 0.61 91 1002.0
20240527014427 64 65 0.0 1.0 0.00 0.61 0.61 91 1002.0
20240527014206 64 65 0.0 1.0 0.00 0.61 0.61 91 1002.2
20240527014006 64 62 0.0 1.0 0.00 0.61 0.61 91 1002.2
20240527013806 64 0 0.0 0.0 0.00 0.61 0.61 90 1002.3
20240527013606 64 0 0.0 0.0 0.00 0.61 0.61 90 1002.3
20240527013406 64 0 0.0 0.0 0.00 0.61 0.61 90 1002.3
20240527013206 64 0 0.0 0.0 0.00 0.61 0.61 90 1002.3
20240527013027 64 0 0.0 0.0 0.00 0.61 0.61 90 1002.2
20240527012827 64 0 0.0 0.0 0.00 0.61 0.61 89 1002.1
20240527012606 64 0 0.0 0.0 0.00 0.61 0.61 89 1002.0
20240527012406 64 0 0.0 0.0 0.00 0.61 0.61 89 1002.0
20240527012206 64 0 0.0 0.0 0.00 0.61 0.61 88 1002.1
20240527012027 64 0 0.0 0.0 0.00 0.61 0.61 88 1002.0
20240527011806 65 0 0.0 1.0 0.00 0.61 0.61 88 1002.0
20240527011606 65 0 0.0 1.0 0.00 0.61 0.61 87 1002.0
20240527011406 65 0 0.0 1.0 0.00 0.61 0.61 87 1002.0
20240527011206 65 0 0.0 1.0 0.00 0.61 0.61 87 1002.0
20240527011006 65 0 0.0 1.0 0.00 0.61 0.61 87 1002.0
20240527010806 66 70 0.0 1.0 0.00 0.61 0.61 86 1001.9
20240527010606 66 70 0.0 1.0 0.00 0.61 0.61 86 1002.0
20240527010406 66 69 0.0 1.0 0.00 0.61 0.61 86 1002.0
20240527010226 66 69 0.0 1.0 0.00 0.61 0.61 86 1001.9
20240527010006 66 69 0.0 1.0 0.00 0.61 0.61 85 1001.9
20240527005827 66 68 0.0 2.0 0.00 0.61 0.61 85 1001.9
20240527005606 66 66 0.0 2.0 0.00 0.61 0.61 85 1001.9
20240527005406 66 66 0.0 2.0 0.00 0.61 0.61 84 1002.0
20240527005205 67 68 0.0 2.0 0.00 0.61 0.61 84 1002.0
20240527005006 67 67 0.0 2.0 0.00 0.61 0.61 84 1002.1
20240527004806 67 66 1.0 2.0 0.00 0.61 0.61 84 1002.0
20240527004605 67 65 1.0 2.0 0.00 0.61 0.61 84 1001.9
20240527004407 67 65 1.0 2.0 0.00 0.61 0.61 84 1001.9
20240527004206 67 64 1.0 3.0 0.00 0.61 0.61 84 1001.8
20240527004006 67 64 1.0 3.0 0.00 0.61 0.61 83 1001.7
20240527003806 68 66 1.0 3.0 0.00 0.61 0.61 83 1001.7
20240527003606 68 66 2.0 3.0 0.00 0.61 0.61 83 1001.6
20240527003406 68 58 2.0 5.0 0.00 0.61 0.61 83 1001.6
20240527003206 68 58 2.0 5.0 0.00 0.61 0.61 83 1001.7
20240527003027 68 58 2.0 5.0 0.00 0.61 0.61 83 1001.7
20240527002806 68 56 2.0 5.0 0.00 0.61 0.61 83 1001.8
20240527002606 68 56 2.0 5.0 0.00 0.61 0.61 82 1001.8
20240527002406 68 63 2.0 4.0 0.00 0.61 0.61 83 1001.7
20240527002207 68 62 1.0 4.0 0.00 0.61 0.61 82 1001.6
20240527002007 68 62 2.0 4.0 0.00 0.61 0.61 83 1001.6
20240527001807 68 62 2.0 5.0 0.00 0.61 0.61 83 1001.5
20240527001606 68 61 2.0 5.0 0.00 0.61 0.61 83 1001.6
20240527001406 68 59 2.0 5.0 0.00 0.61 0.61 83 1001.6
20240527001206 68 57 2.0 5.0 0.00 0.61 0.61 83 1001.7
20240527001006 68 57 2.0 5.0 0.00 0.61 0.61 83 1001.5
20240527000807 68 59 2.0 5.0 0.00 0.61 0.61 83 1001.5
20240527000627 68 58 2.0 5.0 0.00 0.61 0.61 82 1001.6
20240527000427 69 52 2.0 5.0 0.00 0.61 0.61 82 1001.6
20240527000227 69 55 2.0 5.0 0.00 0.61 0.61 83 1001.7
20240527000006 68 46 2.0 6.0 0.00 0.61 0.61 84 1001.7
20240526235828 68 44 2.0 6.0 0.00 0.61 0.61 83 1001.7
20240526235606 68 42 2.0 6.0 0.00 0.61 0.61 82 1001.7
20240526235407 68 44 3.0 6.0 0.00 0.61 0.61 82 1001.7
20240526235228 68 45 3.0 6.0 0.00 0.61 0.61 82 1001.7
20240526235027 68 49 2.0 6.0 0.00 0.61 0.61 82 1001.8
20240526234807 68 50 2.0 6.0 0.00 0.61 0.61 83 1001.7
20240526234627 68 49 2.0 6.0 0.00 0.61 0.61 83 1001.8
20240526234407 68 49 2.0 6.0 0.00 0.61 0.61 83 1001.8
20240526234207 68 48 3.0 6.0 0.00 0.61 0.61 83 1001.8
20240526234007 68 46 3.0 6.0 0.00 0.61 0.61 83 1001.8
20240526233807 68 49 3.0 6.0 0.00 0.61 0.61 82 1001.8
20240526233606 68 51 2.0 6.0 0.00 0.61 0.61 82 1001.8
20240526233407 68 52 2.0 6.0 0.00 0.61 0.61 82 1001.8
20240526233206 69 52 2.0 6.0 0.00 0.61 0.61 82 1001.7
20240526233007 69 57 2.0 5.0 0.00 0.61 0.61 83 1001.8
20240526232828 69 65 2.0 6.0 0.00 0.61 0.61 83 1001.8
20240526232607 69 65 2.0 6.0 0.00 0.61 0.61 84 1001.9
20240526232427 68 65 2.0 6.0 0.00 0.61 0.61 84 1001.9
20240526232207 68 61 2.0 6.0 0.00 0.61 0.61 83 1001.9
20240526232007 68 65 2.0 7.0 0.00 0.61 0.61 83 1001.9
20240526231806 68 55 2.0 7.0 0.00 0.61 0.61 84 1001.9
20240526231607 68 43 3.0 7.0 0.00 0.61 0.61 85 1002.0
20240526231407 68 43 3.0 7.0 0.00 0.61 0.61 85 1002.0
20240526231207 68 37 3.0 7.0 0.00 0.61 0.61 86 1001.9
20240526231007 68 33 3.0 7.0 0.00 0.61 0.61 85 1001.9
20240526230807 68 27 3.0 7.0 0.00 0.61 0.61 85 1001.9
20240526230607 68 36 3.0 7.0 0.00 0.61 0.61 85 1001.9
20240526230407 68 37 3.0 7.0 0.00 0.61 0.61 85 1001.9
20240526230228 68 43 3.0 7.0 0.00 0.61 0.61 85 1001.9
20240526230007 68 51 2.0 7.0 0.00 0.61 0.61 85 1002.0
20240526225807 68 56 2.0 6.0 0.00 0.61 0.61 86 1002.0
20240526225607 68 48 3.0 6.0 0.00 0.61 0.61 87 1002.1
20240526225407 68 47 3.0 6.0 0.00 0.61 0.61 88 1002.2
20240526225207 67 44 3.0 6.0 0.00 0.61 0.61 88 1002.4
20240526225007 67 41 3.0 6.0 0.00 0.61 0.61 89 1002.4
20240526224807 66 41 2.0 6.0 0.00 0.61 0.61 88 1002.5
20240526224607 66 50 2.0 6.0 0.00 0.61 0.61 89 1002.6
20240526224407 66 53 1.0 6.0 0.00 0.61 0.61 91 1002.7
20240526224207 66 61 1.0 4.0 0.00 0.61 0.61 92 1002.7
20240526224028 66 61 1.0 4.0 0.00 0.61 0.61 92 1002.8
20240526223807 65 60 1.0 4.0 0.00 0.61 0.61 92 1002.8
20240526223607 65 60 1.0 4.0 0.00 0.61 0.61 91 1002.8
20240526223428 65 61 1.0 4.0 0.00 0.61 0.61 91 1002.9
20240526223227 64 64 1.0 4.0 0.00 0.61 0.61 92 1002.9
20240526223007 64 66 1.0 3.0 0.00 0.61 0.61 92 1003.0
20240526222807 64 63 1.0 4.0 0.01 0.61 0.61 92 1003.1
20240526222628 64 59 1.0 4.0 0.01 0.61 0.61 92 1003.1
20240526222406 64 51 1.0 5.0 0.01 0.61 0.61 92 1003.1
20240526222207 64 51 1.0 5.0 0.02 0.61 0.61 92 1003.1
20240526222007 64 49 1.0 5.0 0.04 0.61 0.61 92 1003.2
20240526221807 64 49 1.0 5.0 0.05 0.61 0.61 92 1003.2
20240526221607 64 50 1.0 5.0 0.06 0.61 0.61 92 1003.3
20240526221407 64 74 0.0 2.0 0.07 0.61 0.61 92 1003.3
20240526221207 64 75 0.0 2.0 0.08 0.61 0.61 92 1003.3
20240526221007 64 75 0.0 2.0 0.10 0.61 0.61 93 1003.4
20240526220828 64 75 0.0 2.0 0.11 0.61 0.61 93 1003.4
20240526220607 64 75 0.0 2.0 0.13 0.61 0.61 92 1003.4
20240526220428 64 76 0.0 2.0 0.14 0.61 0.61 92 1003.5
20240526220207 64 77 0.0 2.0 0.15 0.61 0.61 92 1003.6
20240526220007 64 81 0.0 2.0 0.16 0.61 0.61 92 1003.5
20240526215807 64 89 0.0 2.0 0.17 0.61 0.61 92 1003.5
20240526215607 64 87 1.0 2.0 0.17 0.61 0.61 92 1003.6
20240526215407 64 87 1.0 3.0 0.18 0.61 0.61 92 1003.5
20240526215207 64 85 1.0 3.0 0.19 0.61 0.61 92 1003.4
20240526215007 64 82 1.0 3.0 0.21 0.61 0.61 92 1003.3
20240526214807 64 76 1.0 3.0 0.22 0.61 0.61 92 1003.3
20240526214607 64 73 1.0 3.0 0.22 0.61 0.61 92 1003.3
20240526214407 64 68 1.0 3.0 0.23 0.61 0.61 92 1003.4
20240526214207 64 68 1.0 3.0 0.24 0.61 0.61 92 1003.4
20240526214028 64 66 0.0 3.0 0.26 0.61 0.61 92 1003.4
20240526213828 64 77 1.0 4.0 0.28 0.61 0.61 92 1003.5
20240526213607 64 89 1.0 4.0 0.32 0.61 0.61 92 1003.7
20240526213428 63 90 1.0 4.0 0.42 0.61 0.61 92 1003.6
20240526213206 63 90 3.0 7.0 0.57 0.61 0.61 92 1003.5
20240526213028 63 90 3.0 7.0 0.59 0.61 0.61 92 1003.5
20240526212807 63 84 3.0 7.0 0.58 0.60 0.60 92 1004.1
20240526212628 63 79 3.0 7.0 0.59 0.60 0.60 92 1004.4
20240526212427 63 66 3.0 7.0 0.59 0.60 0.60 92 1004.2
20240526212207 63 45 4.0 11.0 0.59 0.59 0.59 91 1003.7
20240526212007 63 24 5.0 11.0 0.57 0.57 0.57 92 1003.6
20240526211807 63 13 6.0 14.0 0.56 0.56 0.56 92 1003.4
20240526211607 63 10 6.0 14.0 0.55 0.55 0.55 92 1003.7
20240526211407 63 7 6.0 14.0 0.54 0.54 0.54 92 1003.8
20240526211207 63 10 5.0 14.0 0.53 0.53 0.53 92 1003.8
20240526211007 63 16 4.0 14.0 0.51 0.51 0.51 92 1004.1
20240526210807 64 34 3.0 14.0 0.50 0.50 0.50 92 1004.2
20240526210607 64 52 3.0 10.0 0.48 0.48 0.48 92 1004.3
20240526210428 64 67 2.0 7.0 0.47 0.47 0.47 92 1004.4
20240526210207 64 76 2.0 7.0 0.46 0.46 0.46 92 1004.6
20240526210007 63 76 3.0 7.0 0.45 0.45 0.45 92 1004.7
20240526205807 63 77 3.0 7.0 0.44 0.44 0.44 92 1004.7
20240526205607 63 77 3.0 7.0 0.44 0.44 0.44 92 1004.6
20240526205407 63 74 3.0 7.0 0.43 0.43 0.43 91 1004.6
20240526205207 64 69 3.0 7.0 0.42 0.42 0.42 91 1004.9
20240526205028 64 68 3.0 7.0 0.40 0.40 0.41 91 1004.9
20240526204828 64 70 3.0 6.0 0.39 0.39 0.40 91 1005.1
20240526204628 64 76 3.0 11.0 0.39 0.39 0.39 91 1005.1
20240526204407 64 82 4.0 11.0 0.38 0.38 0.38 91 1005.1
20240526204207 64 86 5.0 13.0 0.37 0.37 0.37 90 1005.1
20240526204007 64 78 6.0 13.0 0.35 0.35 0.35 89 1005.0
20240526203807 64 75 7.0 13.0 0.33 0.33 0.33 89 1005.0
20240526203628 64 76 6.0 13.0 0.29 0.29 0.29 88 1004.9
20240526203407 64 82 7.0 13.0 0.19 0.19 0.21 87 1005.2
20240526203206 65 90 6.0 13.0 0.04 0.04 0.04 87 1005.3
20240526203028 65 104 6.0 12.0 0.02 0.02 0.02 86 1004.4
20240526202828 65 119 5.0 11.0 0.02 0.02 0.02 85 1003.8
20240526202628 65 121 5.0 11.0 0.01 0.01 0.01 84 1003.8
20240526202407 66 123 5.0 10.0 0.01 0.01 0.01 82 1003.7
20240526202228 66 125 6.0 10.0 0.00 0.00 0.00 81 1003.7
20240526202007 67 127 6.0 13.0 0.00 0.00 0.00 79 1003.6
20240526201828 68 132 7.0 15.0 0.00 0.00 0.00 77 1003.6
20240526201628 68 137 8.0 18.0 0.00 0.00 0.00 75 1003.6
20240526201428 69 132 8.0 18.0 0.00 0.00 0.00 73 1003.8
20240526201207 71 128 7.0 18.0 0.00 0.00 0.00 69 1003.6
20240526201007 72 118 6.0 18.0 0.00 0.00 0.00 66 1003.6
20240526200807 75 96 4.0 18.0 0.00 0.00 0.00 62 1003.6
20240526200607 77 59 3.0 9.0 0.00 0.00 0.00 58 1003.4
20240526200428 77 48 3.0 9.0 0.00 0.00 0.00 58 1003.3
20240526200227 77 47 3.0 9.0 0.00 0.00 0.00 56 1003.2
20240526200007 77 37 4.0 9.0 0.00 0.00 0.00 56 1003.3
20240526195806 77 35 4.0 9.0 0.00 0.00 0.00 56 1003.1
20240526195607 77 34 4.0 9.0 0.00 0.00 0.00 56 1003.1
20240526195428 77 33 4.0 8.0 0.00 0.00 0.00 57 1003.1
20240526195207 78 31 5.0 8.0 0.00 0.00 0.00 56 1003.2
20240526195028 78 33 5.0 8.0 0.00 0.00 0.00 56 1003.2
20240526194807 78 30 5.0 10.0 0.00 0.00 0.00 55 1003.1
20240526194607 78 29 5.0 10.0 0.00 0.00 0.00 55 1003.0
20240526194407 78 16 5.0 14.0 0.00 0.00 0.00 55 1003.0
20240526194207 78 18 5.0 14.0 0.00 0.00 0.00 55 1002.8
20240526194007 78 13 5.0 14.0 0.00 0.00 0.00 55 1002.8
20240526193828 78 15 5.0 14.0 0.00 0.00 0.00 55 1002.8
20240526193607 78 17 5.0 14.0 0.00 0.00 0.00 54 1002.8
20240526193406 78 31 4.0 12.0 0.00 0.00 0.00 55 1002.8
20240526193207 78 33 4.0 12.0 0.00 0.00 0.00 55 1002.9
20240526193007 78 42 4.0 9.0 0.00 0.00 0.00 55 1002.9
20240526192807 78 38 5.0 9.0 0.00 0.00 0.00 56 1002.9
20240526192607 78 31 4.0 13.0 0.00 0.00 0.00 55 1002.9
20240526192407 78 38 5.0 13.0 0.00 0.00 0.00 55 1002.9
20240526192207 78 34 5.0 13.0 0.00 0.00 0.00 55 1003.0
20240526192007 78 30 6.0 13.0 0.00 0.00 0.00 55 1002.9
20240526191807 78 17 6.0 13.0 0.00 0.00 0.00 56 1002.9
20240526191607 78 19 6.0 13.0 0.00 0.00 0.00 56 1002.9
20240526191407 77 8 6.0 14.0 0.00 0.00 0.00 55 1002.9
20240526191207 78 5 6.0 14.0 0.00 0.00 0.00 55 1002.8
20240526191028 78 359 6.0 14.0 0.00 0.00 0.00 55 1002.9
20240526190807 78 7 5.0 14.0 0.00 0.00 0.00 55 1003.0
20240526190607 78 6 6.0 14.0 0.00 0.00 0.00 55 1003.1
20240526190407 78 7 6.0 13.0 0.00 0.00 0.00 56 1003.1
20240526190207 78 7 6.0 13.0 0.00 0.00 0.00 56 1003.3
20240526190007 77 14 7.0 13.0 0.00 0.00 0.00 56 1003.4
20240526185806 77 7 7.0 16.0 0.00 0.00 0.00 55 1003.4
20240526185607 77 8 7.0 16.0 0.00 0.00 0.00 55 1003.5
20240526185407 77 11 7.0 16.0 0.00 0.00 0.00 56 1003.5
20240526185207 77 16 6.0 16.0 0.00 0.00 0.00 56 1003.5
20240526185007 77 15 6.0 16.0 0.00 0.00 0.00 56 1003.5
20240526184807 77 22 6.0 12.0 0.00 0.00 0.00 56 1003.5
20240526184607 77 17 6.0 11.0 0.00 0.00 0.00 57 1003.4
20240526184407 77 16 7.0 11.0 0.00 0.00 0.00 56 1003.5
20240526184207 77 15 7.0 12.0 0.00 0.00 0.00 56 1003.5
20240526184007 77 14 7.0 12.0 0.00 0.00 0.00 56 1003.6
20240526183807 77 12 7.0 13.0 0.00 0.00 0.00 56 1003.8
20240526183606 77 13 7.0 14.0 0.00 0.00 0.00 56 1003.8
20240526183428 77 17 7.0 14.0 0.00 0.00 0.00 56 1003.9
20240526183207 77 14 7.0 14.0 0.00 0.00 0.00 56 1003.8
20240526183028 77 17 7.0 14.0 0.00 0.00 0.00 56 1004.0
20240526182807 77 18 6.0 14.0 0.00 0.00 0.00 55 1004.0
20240526182607 77 23 6.0 13.0 0.00 0.00 0.00 56 1004.1
20240526182407 77 22 6.0 13.0 0.00 0.00 0.00 56 1004.2
20240526182207 77 22 6.0 13.0 0.00 0.00 0.00 56 1004.2
20240526182028 77 19 6.0 13.0 0.00 0.00 0.00 56 1004.2
20240526181807 77 14 6.0 14.0 0.00 0.00 0.00 57 1004.3
20240526181607 77 13 6.0 14.0 0.00 0.00 0.00 56 1004.4
20240526181407 76 11 6.0 14.0 0.00 0.00 0.00 56 1004.4
20240526181206 76 9 6.0 14.0 0.00 0.00 0.00 56 1004.5
20240526181007 76 11 6.0 14.0 0.00 0.00 0.00 56 1004.6
20240526180807 76 17 6.0 14.0 0.00 0.00 0.00 56 1004.7
20240526180607 76 14 7.0 14.0 0.00 0.00 0.00 56 1004.8
20240526180407 76 15 6.0 14.0 0.00 0.00 0.00 56 1004.9
20240526180206 76 17 6.0 14.0 0.00 0.00 0.00 56 1004.9
20240526180028 76 15 6.0 14.0 0.00 0.00 0.00 56 1005.0
20240526175807 76 15 6.0 13.0 0.00 0.00 0.00 55 1005.0
20240526175628 76 20 5.0 13.0 0.00 0.00 0.00 56 1005.1
20240526175407 76 21 6.0 13.0 0.00 0.00 0.00 56 1005.1
20240526175207 76 14 6.0 13.0 0.00 0.00 0.00 55 1005.2
20240526175007 76 17 6.0 13.0 0.00 0.00 0.00 55 1005.3
20240526174807 76 20 6.0 13.0 0.00 0.00 0.00 56 1005.4
20240526174607 76 16 6.0 13.0 0.00 0.00 0.00 55 1005.5
20240526174428 76 19 6.0 13.0 0.00 0.00 0.00 55 1005.5
20240526174206 76 30 5.0 12.0 0.00 0.00 0.00 55 1005.4
20240526174007 76 23 6.0 12.0 0.00 0.00 0.00 55 1005.5
20240526173807 76 21 6.0 12.0 0.00 0.00 0.00 55 1005.6
20240526173607 76 23 6.0 12.0 0.00 0.00 0.00 55 1005.7
20240526173428 76 18 6.0 13.0 0.00 0.00 0.00 55 1005.8
20240526173228 76 20 6.0 13.0 0.00 0.00 0.00 54 1005.7
20240526173007 76 24 6.0 13.0 0.00 0.00 0.00 55 1005.9
20240526172807 76 23 6.0 13.0 0.00 0.00 0.00 54 1006.0
20240526172607 76 12 6.0 13.0 0.00 0.00 0.00 54 1006.0
20240526172407 76 15 6.0 12.0 0.00 0.00 0.00 55 1006.0
20240526172207 76 2 6.0 12.0 0.00 0.00 0.00 54 1006.0
20240526172007 76 1 6.0 12.0 0.00 0.00 0.00 55 1006.1
20240526171807 76 3 5.0 12.0 0.00 0.00 0.00 54 1006.1
20240526171628 76 14 5.0 12.0 0.00 0.00 0.00 55 1006.1
20240526171428 76 14 5.0 12.0 0.00 0.00 0.00 54 1006.1
20240526171207 76 25 5.0 12.0 0.00 0.00 0.00 54 1006.0
20240526171008 76 28 5.0 13.0 0.00 0.00 0.00 55 1006.1
20240526170807 76 11 5.0 16.0 0.00 0.00 0.00 55 1006.0
20240526170607 76 9 6.0 16.0 0.00 0.00 0.00 54 1006.1
20240526170407 76 4 6.0 16.0 0.00 0.00 0.00 54 1006.1
20240526170207 76 9 6.0 16.0 0.00 0.00 0.00 54 1006.3
20240526170007 76 9 6.0 16.0 0.00 0.00 0.00 54 1006.3
20240526165828 76 18 6.0 16.0 0.00 0.00 0.00 54 1006.4
20240526165608 76 15 6.0 13.0 0.00 0.00 0.00 54 1006.4
20240526165407 76 25 6.0 13.0 0.00 0.00 0.00 55 1006.6
20240526165208 76 21 6.0 13.0 0.00 0.00 0.00 55 1006.7
20240526165028 76 20 6.0 13.0 0.00 0.00 0.00 54 1006.7
20240526164806 76 21 6.0 13.0 0.00 0.00 0.00 54 1006.8
20240526164607 76 27 6.0 12.0 0.00 0.00 0.00 54 1006.8
20240526164407 76 26 6.0 12.0 0.00 0.00 0.00 54 1006.9
20240526164228 76 31 5.0 11.0 0.00 0.00 0.00 54 1006.9
20240526164007 76 19 6.0 16.0 0.00 0.00 0.00 54 1007.0
20240526163807 76 14 6.0 16.0 0.00 0.00 0.00 54 1007.0
20240526163628 76 12 6.0 16.0 0.00 0.00 0.00 54 1007.0
20240526163407 76 9 7.0 16.0 0.00 0.00 0.00 54 1007.1
20240526163206 76 8 6.0 16.0 0.00 0.00 0.00 54 1007.3
20240526163007 76 21 6.0 14.0 0.00 0.00 0.00 54 1007.4
20240526162807 76 26 5.0 14.0 0.00 0.00 0.00 53 1007.4
20240526162607 76 29 5.0 14.0 0.00 0.00 0.00 53 1007.5
20240526162407 76 39 5.0 10.0 0.00 0.00 0.00 54 1007.5
20240526162207 76 32 6.0 13.0 0.00 0.00 0.00 54 1007.5
20240526162007 76 25 6.0 13.0 0.00 0.00 0.00 53 1007.5
20240526161808 76 20 7.0 13.0 0.00 0.00 0.00 53 1007.6
20240526161607 76 19 6.0 13.0 0.00 0.00 0.00 53 1007.6
20240526161407 76 18 7.0 13.0 0.00 0.00 0.00 52 1007.7
20240526161207 77 18 7.0 13.0 0.00 0.00 0.00 52 1007.8
20240526161007 77 22 6.0 16.0 0.00 0.00 0.00 52 1007.7
20240526160807 77 22 6.0 16.0 0.00 0.00 0.00 52 1007.6
20240526160606 77 19 7.0 16.0 0.00 0.00 0.00 52 1007.7
20240526160406 77 19 7.0 16.0 0.00 0.00 0.00 51 1007.7
20240526160207 77 18 7.0 16.0 0.00 0.00 0.00 50 1007.8
20240526160007 77 16 6.0 14.0 0.00 0.00 0.00 50 1007.9
20240526155807 77 12 7.0 11.0 0.00 0.00 0.00 51 1007.9
20240526155608 77 8 7.0 13.0 0.00 0.00 0.00 50 1007.9
20240526155408 77 358 7.0 13.0 0.00 0.00 0.00 49 1007.9
20240526155207 77 3 7.0 13.0 0.00 0.00 0.00 49 1008.0
20240526155007 77 1 7.0 13.0 0.00 0.00 0.00 49 1007.9
20240526154807 77 10 7.0 13.0 0.00 0.00 0.00 48 1008.0
20240526154608 77 17 7.0 13.0 0.00 0.00 0.00 48 1007.9